Regional Weather Roundup
Issued by NWS

Home | Current Version | Previous Version | Graphics & Text | Print | Product List | Glossary On
Versions: 1 2 3 4 5 6 7 8 9 10 11 12 13 14 15 16 17 18 19 20 21 22 23 24 25 26 27 28 29 30 31 32 33 34 35 36 37 38 39 40 41 42 43 44 45 46 47 48 49 50
000
ASUS43 KLMK 080310
RWRKY
KENTUCKY REGIONAL WEATHER ROUNDUP
NATIONAL WEATHER SERVICE LOUISVILLE KY
1000 PM EST WED DEC 07 2016

NOTE "FAIR" INDICATES FEW OR NO CLOUDS BELOW 12,000 FEET
WITH NO SIGNIFICANT WEATHER AND/OR OBSTRUCTIONS TO VISIBILITY.

KYZ001>023-026-027-061>063-070>075-080400-
WESTERN AND SOUTH CENTRAL KENTUCKY

CITY           SKY/WX    TMP DP  RH WIND       PRES   REMARKS
PADUCAH        CLOUDY    38  22  52 N8        30.26R WCI  32
HENDERSON      CLOUDY    36  23  60 NW9       30.25R WCI  29
OWENSBORO      CLOUDY    36  25  64 NW6       30.24R WCI  31
HOPKINSVILLE   CLOUDY    38  24  57 N7        30.22R WCI  33
BOWLING GREEN  CLOUDY    39  23  52 VRB6      30.22R WCI  35
GLASGOW        CLOUDY    37  24  61 N6        30.19F WCI  32
$$

KYZ024-025-028>034-038-045-046-053-080400-
NORTH CENTRAL KENTUCKY

CITY           SKY/WX    TMP DP  RH WIND       PRES   REMARKS
LOUISVILLE/SDF CLOUDY    37  20  50 NW6       30.20R WCI  32
LOUISVILLE/LOU CLOUDY    37  21  52 NW6       30.21R WCI  32
FORT KNOX      CLOUDY    35  22  60 W7        30.18S WCI  29
$$

KYZ035>037-039>044-047>052-055>060-089>105-080400-
NORTHEAST KENTUCKY

CITY           SKY/WX    TMP DP  RH WIND       PRES   REMARKS
LEXINGTON      CLOUDY    36  24  62 NW5       30.16S WCI  32
COVINGTON      CLOUDY    34  24  67 W8        30.14F WCI  27
FRANKFORT      CLOUDY    36  22  56 W6        30.17R WCI  31
$$

KYZ054-064>069-076>088-106>120-080400-
SOUTHEAST KENTUCKY

CITY           SKY/WX    TMP DP  RH WIND       PRES   REMARKS
JACKSON        CLOUDY    36  24  62 N5        30.12S WCI  32
LONDON         CLEAR     36  24  62 NW3       30.14S
SOMERSET       MOCLDY    34  25  69 N3        30.18R
MIDDLESBORO    CLOUDY    37  34  87 CALM      30.13F
MONTICELLO     CLOUDY    34  28  79 N13       30.19R WCI  25
$$




USA.gov is the U.S. government's official web portal to all federal, state and local government web resources and services.